Weather History for Sharm El Sheikh, Egypt

Change the Weather History Date:

Sunday, January 13, 2013

  Actual Average Record
Temperature  
Mean Temperature 64 °F -  
Max Temperature 75 °F 72 °F - ()
Min Temperature 53 °F 55 °F - ()
Degree Days  
Heating Degree Days 1    
Growing Degree Days 14 (Base 50)    
Moisture  
Dew Point 35 °F    
Average Humidity 35    
Maximum Humidity 49    
Minimum Humidity 25    
Precipitation  
Precipitation 0.00 in 0.00 in - ()
Sea Level Pressure  
Sea Level Pressure 30.07 in    
Wind  
Wind Speed 8 mph ()    
Max Wind Speed 17 mph    
Max Gust Speed -    
Visibility 5.0 miles    
Events      
T = Trace of Precipitation, MM = Missing Value Source: Averaged Metar Reports

Daily Weather History Graph

Daily Weather History Graph

Search for Another Location

Airport:

Trip Planner

Search our weather history database for the weather conditions in past years. The results will help you decide how hot, cold, wet, or windy it might be!

Date:

Astronomy

Jan. 13, 2013 Rise Set
Actual Time 6:35 AM EET 5:07 PM EET
Civil Twilight 6:09 AM EET 5:32 PM EET
Nautical Twilight 5:40 AM EET 6:01 PM EET
Astronomical Twilight 5:12 AM EET 6:29 PM EET
Moon 7:32 AM EET (1/13) 7:07 PM EET (1/13)
Length of Visible Light 11h 22m
Length of Day
10h 32m
Waxing Crescent, 4% of the Moon is Illuminated
Jan 13
Waxing Crescent
Jan 19
First Quarter
Jan 27
Full
Feb 3
Last Quarter
Feb 10
New

Hourly Weather History & Observations

Time (EET) Temp. Dew Point Humidity Pressure Visibility Wind Dir Wind Speed Gust Speed Precip Events Conditions
12:00 AM 59.0 °F 37.4 °F 45% 30.06 in - North 8.1 mph - N/A   Clear
1:00 AM 57.2 °F 33.8 °F 41% 30.09 in - North 5.8 mph - N/A   Clear
2:00 AM 57.2 °F 32.0 °F 38% 30.06 in - North 6.9 mph - N/A   Clear
3:00 AM 57.2 °F 30.2 °F 36% 30.06 in - North 5.8 mph - N/A   Clear
4:00 AM 55.4 °F 32.0 °F 41% 30.04 in - North 5.8 mph - N/A   Clear
5:00 AM 53.6 °F 32.0 °F 44% 30.06 in - NW 5.8 mph - N/A   Clear
6:00 AM 55.4 °F 30.2 °F 38% 30.06 in - NNW 6.9 mph - N/A   Clear
7:00 AM 55.4 °F 30.2 °F 38% 30.06 in - NNW 8.1 mph - N/A   Clear
8:00 AM 60.8 °F 30.2 °F 31% 30.09 in - North 5.8 mph - N/A   Clear
9:00 AM 66.2 °F 30.2 °F 26% 30.09 in - North 11.5 mph - N/A   Clear
10:00 AM - - N/A% 30.09 in - North - - N/A   Clear
11:00 AM 71.6 °F 35.6 °F 27% 30.06 in - NNE 13.8 mph - N/A   Clear
12:00 PM 71.6 °F 37.4 °F 29% 30.06 in - NNE 17.3 mph - N/A   Clear
1:00 PM 73.4 °F 41.0 °F 31% 30.04 in - NNE 13.8 mph - N/A   Clear
2:00 PM 75.2 °F 37.4 °F 25% 30.04 in - NNE 11.5 mph - N/A   Clear
3:00 PM 73.4 °F 37.4 °F 27% 30.04 in - NNE 13.8 mph - N/A   Clear
4:00 PM 69.8 °F 41.0 °F 35% 30.06 in - NNE 15.0 mph - N/A   Clear
5:00 PM 68.0 °F 41.0 °F 37% 30.06 in - North 11.5 mph - N/A   Clear
6:00 PM 64.4 °F 44.6 °F 49% 30.06 in 5.0 mi North 13.8 mph - N/A   Unknown
7:00 PM 64.4 °F 44.6 °F 49% 30.06 in 5.0 mi North 13.8 mph - N/A   Unknown
8:00 PM 64.4 °F 35.6 °F 34% 30.06 in - North 11.5 mph - N/A   Clear
9:00 PM 62.6 °F 28.4 °F 27% 30.09 in - North 12.7 mph - N/A   Clear
10:00 PM 60.8 °F 28.4 °F 29% 30.09 in - North 12.7 mph - N/A   Clear
11:00 PM 60.8 °F 32.0 °F 34% 30.09 in - North 11.5 mph - N/A   Clear